TA5KT-13 Weather Reports


time (UTC)temp
C
wind
direction
speed
KPH
gust
KPH
rain 1hr
cm
rain 24hr
cm
rain mn
cm
humidity
%
barometer
mb
20260906124758 30 0.0 0.0 0.00 0.00 0.00 64 1007.1
20260906123757 30 0.0 0.0 0.00 0.00 0.00 68 1006.9
20260906122757 30 0.0 0.0 0.00 0.00 0.00 71 1006.9
20260906121757 30 0.0 0.0 0.00 0.00 0.00 73 1007.0
20260906120757 30 0.0 0.0 0.00 0.00 0.00 74 1007.1
20260906115758 30 0.0 0.0 0.00 0.00 0.00 83 1006.8
20260906114758 30 0.0 0.0 0.00 0.00 0.00 84 1006.8
20260906113757 30 0.0 0.0 0.00 0.00 0.00 89 1006.9
20260906112757 30 0.0 0.0 0.00 0.00 0.00 89 1006.8
20260906111758 30 0.0 0.0 0.00 0.00 0.00 90 1006.9
20260906110757 30 0.0 0.0 0.00 0.00 0.00 89 1007.1
20260906105757 30 0.0 0.0 0.00 0.00 0.00 90 1007.2
20260906104757 30 0.0 0.0 0.00 0.00 0.00 90 1007.3
20260906103758 30 0.0 0.0 0.00 0.00 0.00 91 1007.3
20260906102757 30 0.0 0.0 0.00 0.00 0.00 93 1007.4
20260906101757 30 0.0 0.0 0.00 0.00 0.00 92 1007.6
20260906100757 30 0.0 0.0 0.00 0.00 0.00 91 1007.7
20260906095758 30 0.0 0.0 0.00 0.00 0.00 90 1007.7
20260906094757 30 0.0 0.0 0.00 0.00 0.00 89 1007.7
20260906093757 30 0.0 0.0 0.00 0.00 0.00 89 1007.8
20260906092757 29 0.0 0.0 0.00 0.00 0.00 83 1007.8
20260906091757 29 0.0 0.0 0.00 0.00 0.00 76 1008.0
20260906090757 29 0.0 0.0 0.00 0.00 0.00 75 1008.2
20260906085757 29 0.0 0.0 0.00 0.00 0.00 76 1008.2
20260906084757 29 0.0 0.0 0.00 0.00 0.00 77 1008.2
20260906083757 29 0.0 0.0 0.00 0.00 0.00 78 1008.4
20260906082758 29 0.0 0.0 0.00 0.00 0.00 78 1008.4
20260906081757 29 0.0 0.0 0.00 0.00 0.00 79 1008.4
20260906080756 29 0.0 0.0 0.00 0.00 0.00 78 1008.4
20260906075757 29 0.0 0.0 0.00 0.00 0.00 78 1008.5
20260906074757 29 0.0 0.0 0.00 0.00 0.00 80 1008.6
20260906073757 29 0.0 0.0 0.00 0.00 0.00 88 1008.4
20260906072757 29 0.0 0.0 0.00 0.00 0.00 83 1008.6
20260906071756 29 0.0 0.0 0.00 0.00 0.00 89 1008.4
20260906070756 29 0.0 0.0 0.00 0.00 0.00 82 1008.4
20260906065757 29 0.0 0.0 0.00 0.00 0.00 77 1008.5
20260906064756 29 0.0 0.0 0.00 0.00 0.00 76 1008.5
20260906063756 28 0.0 0.0 0.00 0.00 0.00 77 1008.4
20260906062756 28 0.0 0.0 0.00 0.00 0.00 77 1007.7
20260906061757 28 0.0 0.0 0.00 0.00 0.00 80 1008.5
20260906060757 28 0.0 0.0 0.00 0.00 0.00 81 1008.6
20260906055756 28 0.0 0.0 0.00 0.00 0.00 84 1008.6
20260906054757 28 0.0 0.0 0.00 0.00 0.00 86 1008.5
20260906053757 28 0.0 0.0 0.00 0.00 0.00 85 1008.3
20260906052756 28 0.0 0.0 0.00 0.00 0.00 86 1008.3
20260906051756 28 0.0 0.0 0.00 0.00 0.00 84 1008.3
20260906050756 28 0.0 0.0 0.00 0.00 0.00 83 1008.3
20260906045756 28 0.0 0.0 0.00 0.00 0.00 81 1008.4
20260906044756 28 0.0 0.0 0.00 0.00 0.00 81 1008.4
20260906043756 28 0.0 0.0 0.00 0.00 0.00 81 1008.4
20260906042756 28 0.0 0.0 0.00 0.00 0.00 83 1008.3
20260906041756 28 0.0 0.0 0.00 0.00 0.00 86 1008.4
20260906040755 28 0.0 0.0 0.00 0.00 0.00 87 1008.5
20260906035755 28 0.0 0.0 0.00 0.00 0.00 85 1008.5
20260906034756 28 0.0 0.0 0.00 0.00 0.00 84 1008.4
20260906033755 28 0.0 0.0 0.00 0.00 0.00 81 1008.2
20260906032756 28 0.0 0.0 0.00 0.00 0.00 83 1008.3
20260906031756 28 0.0 0.0 0.00 0.00 0.00 83 1008.4
20260906030756 28 0.0 0.0 0.00 0.00 0.00 82 1008.3
20260906025755 28 0.0 0.0 0.00 0.00 0.00 80 1008.2
20260906024756 28 0.0 0.0 0.00 0.00 0.00 81 1008.2
20260906023756 28 0.0 0.0 0.00 0.00 0.00 79 1008.4
20260906022756 28 0.0 0.0 0.00 0.00 0.00 80 1008.3
20260906021756 28 0.0 0.0 0.00 0.00 0.00 81 1008.1
20260906020755 28 0.0 0.0 0.00 0.00 0.00 83 1008.1
20260906015755 28 0.0 0.0 0.00 0.00 0.00 82 1007.9
20260906014755 29 0.0 0.0 0.00 0.00 0.00 78 1008.0
20260906013756 29 0.0 0.0 0.00 0.00 0.00 77 1008.0
20260906012755 29 0.0 0.0 0.00 0.00 0.00 77 1008.0
20260906011755 28 0.0 0.0 0.00 0.00 0.00 77 1007.9
20260906010755 28 0.0 0.0 0.00 0.00 0.00 77 1007.8
20260906005756 28 0.0 0.0 0.00 0.00 0.00 78 1007.8
20260906004754 28 0.0 0.0 0.00 0.00 0.00 78 1007.9
20260906003755 29 0.0 0.0 0.00 0.00 0.00 77 1007.9
20260906002755 28 0.0 0.0 0.00 0.00 0.00 77 1007.9
20260906001755 29 0.0 0.0 0.00 0.00 0.00 78 1008.0
20260906000755 29 0.0 0.0 0.00 0.00 0.00 79 1008.0
20260905235754 29 0.0 0.0 0.00 0.00 0.00 79 1008.2
20260905234755 29 0.0 0.0 0.00 0.00 0.00 78 1008.1
20260905233755 28 0.0 0.0 0.00 0.00 0.00 78 1008.1
20260905232755 29 0.0 0.0 0.00 0.00 0.00 78 1008.2
20260905231755 29 0.0 0.0 0.00 0.00 0.00 77 1008.2
20260905230755 29 0.0 0.0 0.00 0.00 0.00 77 1008.4
20260905225754 29 0.0 0.0 0.00 0.00 0.00 79 1008.4
20260905224755 29 0.0 0.0 0.00 0.00 0.00 79 1008.4
20260905223754 29 0.0 0.0 0.00 0.00 0.00 78 1008.6
20260905222755 29 0.0 0.0 0.00 0.00 0.00 78 1008.7
20260905221754 29 0.0 0.0 0.00 0.00 0.00 77 1008.7
20260905220754 30 0.0 0.0 0.00 0.00 0.00 77 1008.8
20260905215754 30 0.0 0.0 0.00 0.00 0.00 77 1008.9
20260905214755 30 0.0 0.0 0.00 0.00 0.00 77 1009.0
20260905213755 30 0.0 0.0 0.00 0.00 0.00 77 1009.0
20260905212754 30 0.0 0.0 0.00 0.00 0.00 77 1009.0
20260905211755 30 0.0 0.0 0.00 0.00 0.00 77 1009.0
20260905210755 30 0.0 0.0 0.00 0.00 0.00 77 1009.0
20260905205754 30 0.0 0.0 0.00 0.00 0.00 78 1009.0
20260905204754 29 0.0 0.0 0.00 0.00 0.00 78 1009.0
20260905203754 29 0.0 0.0 0.00 0.00 0.00 78 1009.0
20260905202754 30 0.0 0.0 0.00 0.00 0.00 77 1009.0
20260905201754 29 0.0 0.0 0.00 0.00 0.00 79 1009.1
20260905200754 29 0.0 0.0 0.00 0.00 0.00 79 1009.1
20260905195754 30 0.0 0.0 0.00 0.00 0.00 78 1009.1
20260905194754 30 0.0 0.0 0.00 0.00 0.00 79 1009.2
20260905193754 29 0.0 0.0 0.00 0.00 0.00 79 1009.0
20260905192754 30 0.0 0.0 0.00 0.00 0.00 79 1009.1
20260905191754 29 0.0 0.0 0.00 0.00 0.00 79 1009.0
20260905190754 28 0.0 0.0 0.00 0.00 0.00 80 1009.0
20260905185754 29 0.0 0.0 0.00 0.00 0.00 78 1009.0
20260905184753 29 0.0 0.0 0.00 0.00 0.00 77 1009.0
20260905183753 29 0.0 0.0 0.00 0.00 0.00 76 1009.0
20260905182753 29 0.0 0.0 0.00 0.00 0.00 76 1009.1
20260905181753 30 0.0 0.0 0.00 0.00 0.00 76 1009.0
20260905180754 30 0.0 0.0 0.00 0.00 0.00 76 1009.1
20260905175753 30 0.0 0.0 0.00 0.00 0.00 76 1009.0
20260905174754 29 0.0 0.0 0.00 0.00 0.00 75 1009.0
20260905173753 30 0.0 0.0 0.00 0.00 0.00 77 1008.7
20260905172754 30 0.0 0.0 0.00 0.00 0.00 77 1008.6
20260905171753 30 0.0 0.0 0.00 0.00 0.00 76 1008.5
20260905170753 30 0.0 0.0 0.00 0.00 0.00 77 1008.5
20260905165753 30 0.0 0.0 0.00 0.00 0.00 76 1008.1
20260905164753 30 0.0 0.0 0.00 0.00 0.00 76 1008.1
20260905163753 30 0.0 0.0 0.00 0.00 0.00 76 1008.0
20260905162754 30 0.0 0.0 0.00 0.00 0.00 76 1007.9
20260905161754 30 0.0 0.0 0.00 0.00 0.00 78 1007.7
20260905160753 30 0.0 0.0 0.00 0.00 0.00 79 1007.7
20260905155753 30 0.0 0.0 0.00 0.00 0.00 79 1007.6
20260905154754 30 0.0 0.0 0.00 0.00 0.00 81 1007.5
20260905153753 30 0.0 0.0 0.00 0.00 0.00 81 1007.5
20260905152753 30 0.0 0.0 0.00 0.00 0.00 83 1007.4
20260905151753 30 0.0 0.0 0.00 0.00 0.00 83 1007.3
20260905150752 30 0.0 0.0 0.00 0.00 0.00 85 1007.4
20260905145752 30 0.0 0.0 0.00 0.00 0.00 86 1007.4
20260905144752 30 0.0 0.0 0.00 0.00 0.00 86 1007.3
20260905143753 30 0.0 0.0 0.00 0.00 0.00 88 1007.0
20260905142753 30 0.0 0.0 0.00 0.00 0.00 89 1007.0
20260905141753 30 0.0 0.0 0.00 0.00 0.00 90 1007.0
20260905140753 30 0.0 0.0 0.00 0.00 0.00 91 1006.9
20260905135752 30 0.0 0.0 0.00 0.00 0.00 91 1006.9
20260905134752 30 0.0 0.0 0.00 0.00 0.00 91 1007.0
20260905133752 30 0.0 0.0 0.00 0.00 0.00 91 1007.0
20260905132752 30 0.0 0.0 0.00 0.00 0.00 91 1007.1
20260905131753 30 0.0 0.0 0.00 0.00 0.00 91 1007.1
20260905130752 30 0.0 0.0 0.00 0.00 0.00 91 1007.0
20260905125752 30 0.0 0.0 0.00 0.00 0.00 90 1007.1